Погода в Спасском

Россия / Ставропольский край     45°04′27″N   43°41′32″E
темп.,
°C
ветер,
м/с
пор.,
м/с
влажн.,
%
обл.,
%
осадки,
мм/ч
давл.,
гПа
погр.,
м
11 мая, вт
вт1100:00+7ююз486699 0.0 1018182
03:00+6ююз597658 0.0 1018224
06:00+7ю41077100 0.0 1018335
09:00+13ююв795156 0.0 10181250
12:00+14юв8945100 0.0 10172095
15:00+14в9956100 0.0 10171356
18:00+13в61258100 0.0 1016625
21:00+11вюв7135698 0.0 1017444
12 мая, ср
ср1200:00+8вюв3107615 0.0 1017207
03:00+7вюв22869 0.0 101714
06:00+9сз00803 0.0 101746
09:00+15в346760 0.0 1017969
12:00+17в5558100 0.1 10171474
15:00+18вюв455793 0.1 10161382
18:00+18юв46634 0.0 1016302
21:00+13вюв22803 0.0 101515
13 мая, чт
чт1300:00+13в228227 0.0 101411
03:00+11вюв34860 0.0 101443
06:00+12юв25850 0.0 1015132
09:00+18вюв45620 0.0 1015607
12:00+23вюв45501 0.0 1014988
15:00+25вюв55450 0.0 10141114
18:00+23вюв36570 0.0 1013170
21:00+17вюв34660 0.0 101444
14 мая, пт
пт1400:00+15вюв34715 0.0 101357
03:00+13юв33878 0.0 101432
06:00+14вюв35844 0.0 1014144
09:00+20вюв44600 0.0 1014506
12:00+25вюв45510 0.0 1013853
15:00+28юв56460 0.0 10121084
18:00+26вюв595312 0.0 1011262
21:00+18в413635 0.0 1012259
15 мая, сб
сб1500:00+16вюв49681 0.0 1012170
03:00+14вюв35660 0.0 101271
06:00+15юв246638 0.0 1013111
09:00+22зсз11545 0.0 1013387
12:00+27ссз23441 0.0 1013974
15:00+29ссз44400 0.0 10121509
18:00+27сз355631 0.0 1013131
21:00+21сз61178100 0.0 1014295